JST764 YSSY-YPAD

Flight info

Callsign JST764
Flight time 1h 44m
Altitude 38000
Route TESAT A576 KADOM H44 MAXEM Q60 KAKLU H309 AD
Aircraft A20N/M-SDE2E3FGHIRWXY/LB1

Departure

Time 2026-05-04 06:48
Airport Sydney Kingsford Smith International Airport (YSSY)

Arrival

Time 2026-05-04 08:33
Airport Adelaide International Airport (YPAD)
Time Latitude Longitude Altitude Speed Heading
2026-05-04 06:25 -33.93463 151.17705 30 ft 0 kts 99°
2026-05-04 06:37 -33.93462 151.17700 30 ft 1 kts 99°
2026-05-04 06:37 -33.93461 151.17692 30 ft 1 kts 99°
2026-05-04 06:38 -33.93460 151.17683 30 ft 1 kts 99°
2026-05-04 06:38 -33.93458 151.17674 30 ft 1 kts 99°
2026-05-04 06:40 -33.93426 151.17602 30 ft 0 kts 166°
2026-05-04 06:41 -33.93439 151.17602 29 ft 4 kts 189°
2026-05-04 06:41 -33.93491 151.17588 29 ft 10 kts 171°
2026-05-04 06:41 -33.93588 151.17610 29 ft 16 kts 165°
2026-05-04 06:41 -33.93664 151.17649 29 ft 9 kts 150°
2026-05-04 06:42 -33.93688 151.17665 29 ft 9 kts 152°
2026-05-04 06:42 -33.93765 151.17695 29 ft 11 kts 165°
2026-05-04 06:42 -33.93847 151.17739 29 ft 7 kts 140°
2026-05-04 06:44 -33.94556 151.17890 30 ft 27 kts 168°
2026-05-04 06:44 -33.94739 151.17940 30 ft 29 kts 168°
2026-05-04 06:44 -33.94937 151.17991 30 ft 24 kts 167°
2026-05-04 06:45 -33.95084 151.18031 30 ft 14 kts 168°
2026-05-04 06:45 -33.95178 151.18004 30 ft 16 kts 248°
2026-05-04 06:45 -33.95217 151.17873 29 ft 5 kts 256°
2026-05-04 06:45 -33.95217 151.17871 29 ft 0 kts 256°
2026-05-04 06:46 -33.95222 151.17839 29 ft 13 kts 263°
2026-05-04 06:46 -33.95148 151.17732 27 ft 20 kts 345°
2026-05-04 06:46 -33.94894 151.17668 29 ft 75 kts 349°
2026-05-04 06:46 -33.94114 151.17469 30 ft 149 kts 349°
2026-05-04 06:48 -33.88066 151.11504 5608 ft 252 kts 266°
2026-05-04 06:48 -33.88205 151.09399 6645 ft 253 kts 276°
2026-05-04 06:49 -33.87947 151.07308 7582 ft 254 kts 289°
2026-05-04 06:50 -33.82974 150.91857 12877 ft 324 kts 286°
2026-05-04 06:51 -33.82461 150.89195 13733 ft 329 kts 286°
2026-05-04 06:51 -33.81947 150.86498 14525 ft 332 kts 286°
2026-05-04 06:51 -33.81431 150.83778 15328 ft 335 kts 286°
2026-05-04 06:51 -33.80910 150.81031 16091 ft 339 kts 286°
2026-05-04 06:52 -33.80382 150.78254 16866 ft 342 kts 286°
2026-05-04 06:52 -33.79849 150.75456 17615 ft 346 kts 286°
2026-05-04 06:52 -33.79311 150.72632 18437 ft 347 kts 286°
2026-05-04 06:52 -33.78777 150.69833 19097 ft 349 kts 286°
2026-05-04 06:53 -33.78411 150.67915 19593 ft 349 kts 286°
2026-05-04 06:53 -33.77865 150.65066 20325 ft 350 kts 286°
2026-05-04 06:53 -33.77316 150.62207 21032 ft 352 kts 285°
2026-05-04 06:53 -33.76574 150.58358 21910 ft 354 kts 285°
2026-05-04 06:54 -33.76025 150.55509 22585 ft 356 kts 285°
2026-05-04 06:54 -33.75465 150.52594 23233 ft 359 kts 285°
2026-05-04 06:54 -33.74901 150.49666 23862 ft 361 kts 285°
2026-05-04 06:54 -33.74517 150.47674 24188 ft 363 kts 285°
2026-05-04 06:55 -33.73757 150.43743 24850 ft 367 kts 286°
2026-05-04 06:55 -33.73177 150.40743 25334 ft 370 kts 286°
2026-05-04 06:55 -33.72782 150.38701 25649 ft 372 kts 286°
2026-05-04 06:55 -33.72195 150.35668 26104 ft 375 kts 286°
2026-05-04 06:56 -33.71676 150.32580 26551 ft 380 kts 282°
2026-05-04 06:57 -33.72875 150.09464 29415 ft 409 kts 270°
2026-05-04 06:58 -33.73166 150.06091 29730 ft 413 kts 270°
2026-05-04 06:58 -33.73463 150.02645 30092 ft 416 kts 270°
2026-05-04 06:58 -33.73761 149.99178 30458 ft 417 kts 270°
2026-05-04 06:58 -33.74059 149.95718 30946 ft 416 kts 270°
2026-05-04 06:59 -33.74354 149.92271 31417 ft 414 kts 270°
2026-05-04 06:59 -33.74646 149.88854 32003 ft 408 kts 270°
2026-05-04 06:59 -33.74934 149.85481 32622 ft 403 kts 270°
2026-05-04 06:59 -33.75216 149.82155 33255 ft 397 kts 270°
2026-05-04 07:01 -33.77092 149.59590 35994 ft 383 kts 270°
2026-05-04 07:01 -33.77354 149.56404 36258 ft 383 kts 270°
2026-05-04 07:02 -33.77614 149.53223 36562 ft 382 kts 270°
2026-05-04 07:02 -33.77873 149.50053 36861 ft 380 kts 270°
2026-05-04 07:02 -33.78130 149.46896 37149 ft 379 kts 270°
2026-05-04 07:02 -33.78386 149.43746 37407 ft 378 kts 270°
2026-05-04 07:03 -33.78640 149.40602 37680 ft 377 kts 270°
2026-05-04 07:03 -33.78893 149.37471 37929 ft 377 kts 270°
2026-05-04 07:03 -33.79145 149.34329 38035 ft 376 kts 270°
2026-05-04 07:03 -33.79395 149.31212 38039 ft 375 kts 270°
2026-05-04 07:04 -33.79892 149.24978 38042 ft 374 kts 270°
2026-05-04 07:04 -33.80385 149.18742 38043 ft 375 kts 270°
2026-05-04 07:05 -33.80876 149.12499 38047 ft 378 kts 270°
2026-05-04 07:05 -33.81368 149.06218 38047 ft 379 kts 270°
2026-05-04 07:06 -33.82103 148.96749 38056 ft 380 kts 270°
2026-05-04 07:07 -33.82590 148.90428 38052 ft 380 kts 270°
2026-05-04 07:09 -33.84559 148.65107 38058 ft 382 kts 267°
2026-05-04 07:09 -33.85578 148.58805 38053 ft 384 kts 265°
2026-05-04 07:10 -33.86629 148.52515 38056 ft 384 kts 265°
2026-05-04 07:12 -33.90799 148.27299 38048 ft 384 kts 265°
2026-05-04 07:12 -33.91835 148.20987 38047 ft 384 kts 265°
2026-05-04 07:13 -33.92867 148.14672 38057 ft 384 kts 265°
2026-05-04 07:13 -33.93896 148.08353 38054 ft 385 kts 265°
2026-05-04 07:14 -33.96454 147.92554 38062 ft 384 kts 265°
2026-05-04 07:15 -33.97462 147.86301 38056 ft 383 kts 265°
2026-05-04 07:15 -33.98471 147.80002 38056 ft 383 kts 265°
2026-05-04 07:16 -33.99479 147.73699 38056 ft 383 kts 265°
2026-05-04 07:16 -34.00483 147.67401 38051 ft 382 kts 265°
2026-05-04 07:17 -34.01483 147.61107 38053 ft 382 kts 265°
2026-05-04 07:17 -34.02479 147.54812 38049 ft 383 kts 266°
2026-05-04 07:18 -34.03472 147.48506 38039 ft 383 kts 266°
2026-05-04 07:18 -34.04463 147.42199 38039 ft 383 kts 266°
2026-05-04 07:19 -34.05451 147.35890 38039 ft 383 kts 266°
2026-05-04 07:19 -34.06435 147.29582 38038 ft 383 kts 266°
2026-05-04 07:20 -34.07418 147.23261 38040 ft 384 kts 266°
2026-05-04 07:20 -34.08400 147.16926 38043 ft 384 kts 266°
2026-05-04 07:22 -34.12301 146.91523 38050 ft 387 kts 266°
2026-05-04 07:23 -34.13274 146.85128 38051 ft 388 kts 266°
2026-05-04 07:23 -34.14245 146.78724 38052 ft 388 kts 266°
2026-05-04 07:24 -34.15214 146.72317 38054 ft 388 kts 266°
2026-05-04 07:24 -34.16179 146.65908 38054 ft 388 kts 266°
2026-05-04 07:26 -34.20005 146.40253 38042 ft 388 kts 266°
2026-05-04 07:27 -34.20953 146.33843 38042 ft 387 kts 266°
2026-05-04 07:27 -34.21896 146.27436 38039 ft 387 kts 266°
2026-05-04 07:28 -34.22828 146.21074 38040 ft 387 kts 266°
2026-05-04 07:28 -34.23764 146.14672 38036 ft 387 kts 266°
2026-05-04 07:29 -34.24699 146.08269 38036 ft 387 kts 266°
2026-05-04 07:29 -34.25569 146.01855 38036 ft 386 kts 268°
2026-05-04 07:30 -34.26335 145.95436 38033 ft 386 kts 268°
2026-05-04 07:30 -34.27116 145.89020 38032 ft 386 kts 268°
2026-05-04 07:31 -34.27904 145.82615 38033 ft 386 kts 268°
2026-05-04 07:33 -34.31025 145.56945 38024 ft 387 kts 268°
2026-05-04 07:33 -34.31799 145.50509 38023 ft 387 kts 268°
2026-05-04 07:34 -34.32565 145.44104 38025 ft 387 kts 268°
2026-05-04 07:34 -34.33333 145.37661 38024 ft 387 kts 268°
2026-05-04 07:35 -34.34098 145.31203 38027 ft 388 kts 268°
2026-05-04 07:35 -34.34862 145.24732 38039 ft 388 kts 268°
2026-05-04 07:36 -34.35621 145.18265 38040 ft 389 kts 268°
2026-05-04 07:38 -34.38643 144.92241 38035 ft 391 kts 268°
2026-05-04 07:38 -34.39392 144.85713 38037 ft 392 kts 268°
2026-05-04 07:39 -34.40138 144.79178 38040 ft 392 kts 268°
2026-05-04 07:39 -34.40881 144.72638 38040 ft 392 kts 268°
2026-05-04 07:40 -34.41620 144.66101 38041 ft 392 kts 268°
2026-05-04 07:40 -34.42357 144.59544 38034 ft 393 kts 267°
2026-05-04 07:41 -34.43092 144.52983 38033 ft 393 kts 267°
2026-05-04 07:41 -34.43823 144.46420 38033 ft 393 kts 267°
2026-05-04 07:42 -34.44545 144.39900 38033 ft 393 kts 267°
2026-05-04 07:42 -34.45269 144.33336 38032 ft 393 kts 267°
2026-05-04 07:43 -34.45989 144.26772 38032 ft 393 kts 267°
2026-05-04 07:43 -34.46705 144.20217 38028 ft 393 kts 267°
2026-05-04 07:44 -34.47418 144.13645 38034 ft 393 kts 267°
2026-05-04 07:44 -34.48129 144.07075 38030 ft 393 kts 267°
2026-05-04 07:45 -34.48716 144.01620 38034 ft 393 kts 267°
2026-05-04 07:45 -34.49420 143.95045 38034 ft 393 kts 267°
2026-05-04 07:46 -34.50119 143.88478 38032 ft 393 kts 267°
2026-05-04 07:46 -34.50814 143.81919 38031 ft 393 kts 267°
2026-05-04 07:47 -34.51507 143.75348 38037 ft 393 kts 267°
2026-05-04 07:49 -34.54243 143.49057 38037 ft 392 kts 267°
2026-05-04 07:49 -34.54911 143.42539 38041 ft 392 kts 267°
2026-05-04 07:50 -34.55582 143.35972 38037 ft 392 kts 267°
2026-05-04 07:50 -34.56249 143.29408 38036 ft 392 kts 267°
2026-05-04 07:51 -34.56911 143.22846 38038 ft 392 kts 267°
2026-05-04 07:51 -34.57570 143.16288 38037 ft 391 kts 267°
2026-05-04 07:52 -34.58225 143.09739 38034 ft 391 kts 267°
2026-05-04 07:52 -34.58876 143.03181 38040 ft 391 kts 267°
2026-05-04 07:54 -34.61450 142.76918 38051 ft 393 kts 267°
2026-05-04 07:55 -34.62085 142.70343 38050 ft 393 kts 267°
2026-05-04 07:55 -34.62719 142.63752 38053 ft 393 kts 267°
2026-05-04 07:56 -34.63351 142.57163 38054 ft 393 kts 267°
2026-05-04 07:56 -34.63765 142.50572 38048 ft 392 kts 269°
2026-05-04 07:57 -34.64150 142.44011 38050 ft 392 kts 269°
2026-05-04 07:57 -34.64536 142.37406 38051 ft 392 kts 269°
2026-05-04 07:58 -34.64909 142.30806 38074 ft 392 kts 269°
2026-05-04 07:58 -34.65278 142.24188 38040 ft 393 kts 269°
2026-05-04 07:59 -34.65644 142.17564 38046 ft 393 kts 269°
2026-05-04 07:59 -34.66005 142.10934 38045 ft 393 kts 269°
2026-05-04 08:00 -34.66364 142.04300 38046 ft 394 kts 269°
2026-05-04 08:02 -34.67767 141.77661 38038 ft 397 kts 269°
2026-05-04 08:02 -34.68111 141.70959 38040 ft 398 kts 269°
2026-05-04 08:03 -34.68451 141.64251 38055 ft 399 kts 269°
2026-05-04 08:03 -34.68789 141.57520 38060 ft 399 kts 269°
2026-05-04 08:04 -34.69122 141.50819 38065 ft 400 kts 269°
2026-05-04 08:04 -34.69454 141.44060 38071 ft 401 kts 269°
2026-05-04 08:05 -34.69783 141.37291 38073 ft 402 kts 269°
2026-05-04 08:05 -34.70105 141.30528 38070 ft 400 kts 269°
2026-05-04 08:06 -34.70426 141.23781 38061 ft 400 kts 269°
2026-05-04 08:06 -34.70743 141.17032 38060 ft 400 kts 269°
2026-05-04 08:08 -34.71975 140.89969 38079 ft 402 kts 269°
2026-05-04 08:11 -34.73282 140.59617 38072 ft 400 kts 268°
2026-05-04 08:11 -34.73703 140.49501 37736 ft 399 kts 268°
2026-05-04 08:12 -34.73839 140.46128 37002 ft 402 kts 268°
2026-05-04 08:12 -34.73976 140.42701 35997 ft 410 kts 268°
2026-05-04 08:12 -34.74115 140.39207 34984 ft 417 kts 267°
2026-05-04 08:12 -34.74253 140.35680 34162 ft 418 kts 266°
2026-05-04 08:13 -34.74392 140.32142 33204 ft 419 kts 266°
2026-05-04 08:13 -34.74531 140.28593 32224 ft 421 kts 266°
2026-05-04 08:13 -34.74670 140.25028 31230 ft 422 kts 266°
2026-05-04 08:13 -34.74805 140.21508 30483 ft 411 kts 265°
2026-05-04 08:14 -34.74934 140.18100 29984 ft 398 kts 265°
2026-05-04 08:14 -34.75061 140.14785 29408 ft 398 kts 265°
2026-05-04 08:14 -34.75189 140.11430 28788 ft 396 kts 265°
2026-05-04 08:16 -34.76002 139.89353 24651 ft 374 kts 263°
2026-05-04 08:16 -34.76116 139.86192 24041 ft 373 kts 263°
2026-05-04 08:16 -34.76228 139.83036 23372 ft 373 kts 263°
2026-05-04 08:17 -34.76339 139.79903 22776 ft 369 kts 263°
2026-05-04 08:17 -34.76448 139.76804 22174 ft 365 kts 263°
2026-05-04 08:17 -34.76556 139.73729 21551 ft 362 kts 263°
2026-05-04 08:17 -34.76662 139.70687 20965 ft 360 kts 263°
2026-05-04 08:19 -34.77372 139.49811 16695 ft 345 kts 263°
2026-05-04 08:19 -34.77464 139.46904 16096 ft 343 kts 264°
2026-05-04 08:20 -34.77547 139.44048 15502 ft 341 kts 264°
2026-05-04 08:20 -34.77634 139.41169 14911 ft 340 kts 264°
2026-05-04 08:20 -34.77723 139.38306 14304 ft 339 kts 264°
2026-05-04 08:20 -34.77804 139.35445 13693 ft 338 kts 264°
2026-05-04 08:21 -34.77877 139.32602 13085 ft 335 kts 265°
2026-05-04 08:21 -34.77945 139.29776 12497 ft 332 kts 265°
2026-05-04 08:21 -34.78011 139.26989 11917 ft 329 kts 265°
2026-05-04 08:21 -34.78074 139.24214 11335 ft 327 kts 266°
2026-05-04 08:22 -34.78137 139.21457 10758 ft 325 kts 266°
2026-05-04 08:22 -34.78200 139.18703 10134 ft 325 kts 266°
2026-05-04 08:24 -34.78555 139.02187 8145 ft 263 kts 266°
2026-05-04 08:24 -34.78602 138.99968 7773 ft 261 kts 266°
2026-05-04 08:24 -34.78648 138.97772 7416 ft 258 kts 266°
2026-05-04 08:24 -34.78692 138.95598 7056 ft 256 kts 266°
2026-05-04 08:25 -34.78737 138.93442 6696 ft 254 kts 266°
2026-05-04 08:25 -34.78780 138.91335 6546 ft 243 kts 266°
2026-05-04 08:25 -34.78819 138.89310 6301 ft 237 kts 266°
2026-05-04 08:25 -34.78857 138.87312 5932 ft 236 kts 266°
2026-05-04 08:26 -34.78895 138.85347 5584 ft 235 kts 266°
2026-05-04 08:27 -34.81455 138.72647 3366 ft 223 kts 229°
2026-05-04 08:28 -34.82449 138.71265 3252 ft 210 kts 230°
2026-05-04 08:28 -34.83338 138.69983 3253 ft 187 kts 230°
2026-05-04 08:28 -34.84131 138.68830 3255 ft 169 kts 230°
2026-05-04 08:28 -34.84842 138.67793 3078 ft 151 kts 230°
2026-05-04 08:29 -34.85512 138.66816 2625 ft 149 kts 230°
2026-05-04 08:29 -34.86170 138.65858 2136 ft 146 kts 230°
2026-05-04 08:29 -34.86806 138.64928 1907 ft 138 kts 231°
2026-05-04 08:31 -34.90940 138.58822 783 ft 121 kts 231°
2026-05-04 08:33 -34.94667 138.53441 28 ft 73 kts 231°
2026-05-04 08:33 -34.94902 138.53103 27 ft 28 kts 231°
2026-05-04 08:35 -34.94517 138.53263 26 ft 14 kts 91°
2026-05-04 08:35 -34.94480 138.53392 27 ft 17 kts 55°
2026-05-04 08:35 -34.94365 138.53546 28 ft 21 kts 49°
2026-05-04 08:35 -34.94298 138.53640 26 ft 23 kts 49°
2026-05-04 08:37 -34.93853 138.53954 27 ft 0 kts 320°